Flag for Germany Weather past 2 weeks in Lübbecke, North Rhine-Westphalia, Germany

Now
54 °F

Broken clouds.


Feels Like: 53 °F
Forecast: 45 / 65 °F
Wind: 5 mph from Northeast

Location: Bueckeburg


UV Index: 3 (Moderate)

Visibility: 5 mi


Pressure: 29.71 "Hg

Humidity: 82%

Dew point: 48 °F

Location of LübbeckeLocation

Historic Weather in Lübbecke

°F

Lübbecke temperature yesterday

Maximum temperature yesterday: 66 °F (at 3:20 PM)
Minimum temperature yesterday: 46 °F (at 4:20 AM)
Average temperature yesterday: 57 °F

Past Weeks' High & Low Weather Summary

 TemperatureHumidityPressure
High70 °F (Apr 7, 4:20 PM)100% (Apr 11, 9:20 AM)30.48 "Hg (Apr 11, 9:20 AM)
Low30 °F (Apr 16, 4:20 AM)31% (Apr 17, 6:20 PM)29.71 "Hg (Apr 8, 6:20 AM)
Average51 °F73%30.04 "Hg
* Reported Apr 6 9:20 AM — Apr 21 9:20 AM, Lübbecke, Weather by CustomWeather, © 2014

Note: Actual official high and low records may vary slightly from our data, if they occured in-between our weather recording intervals... More about our weather records

Advertising

Historic Weather Conditions — Data for Previous 24 hours

 ConditionsComfort  
Time TempWeatherWind HumidityBarometerVisibility
9:20 AM
Apr 21
52 °FBroken clouds.5 mph88%29.74 "HgN/A
8:20 AM50 °FLight rain. Partly sunny.2 mph94%29.74 "Hg6 mi
7:20 AM52 °FLight rain. Partly sunny.2 mph88%29.74 "HgN/A
6:20 AM52 °FLight rain. Passing clouds.9 mph82%29.74 "HgN/A
5:20 AM54 °FLight rain. Mostly cloudy.2 mph77%29.74 "HgN/A
4:20 AM52 °FMostly cloudy.1 mph77%29.74 "HgN/A
3:20 AM52 °FPassing clouds.5 mph77%29.77 "HgN/A
2:20 AM52 °FPassing clouds.2 mph77%29.77 "HgN/A
1:20 AM54 °FPassing clouds.1 mph72%29.80 "HgN/A
12:20 AM54 °FPassing clouds.2 mph72%29.80 "HgN/A
11:20 PM
Apr 20
57 °FPassing clouds.7 mph63%29.80 "HgN/A
10:20 PM57 °FPassing clouds.10 mph63%29.80 "HgN/A
9:20 PM59 °FScattered clouds.7 mph55%29.80 "HgN/A
8:20 PM59 °FScattered clouds.8 mph55%29.80 "HgN/A
7:20 PM64 °FPassing clouds.10 mph46%29.77 "HgN/A
6:20 PM66 °FPassing clouds.16 mph43%29.77 "HgN/A
5:20 PM66 °FPassing clouds.16 mph46%29.77 "HgN/A
4:20 PM66 °FPassing clouds.18 mph46%29.77 "HgN/A
3:20 PM66 °FPassing clouds.16 mph49%29.80 "HgN/A
2:20 PM64 °FPassing clouds.16 mph52%29.83 "HgN/A
1:20 PM63 °FPassing clouds.18 mph59%29.83 "HgN/A
12:20 PM61 °FPassing clouds.20 mph59%29.83 "HgN/A
11:20 AM59 °FScattered clouds.15 mph72%29.86 "HgN/A
Weather by CustomWeather, © 2014

See weather overview